7 * 24
多渠道服务支持
JILIN-01 KUANFU 02A是中国于北京时间2023年8月25日08时发射的卫星,归属吉林一号卫星星座体系。作为宽幅光学遥感卫星,它凭借大幅宽成像能力,在国土测绘、农业估产、灾害监测、城市规划等领域提供高分辨率遥感数据支撑,助力我国遥感应用能力提升,服务国民经济各领域发展。
中国
(CN)
| 数据来源 | 国际轨道数据 |
| 星历时间: | 2026-09-11T05:43:26+0800 13小时前 查看轨道信息 |
| 半长轴: | 6916.22km |
| 偏心率: | 0.0013868 |
| 轨道倾角: | 97.556° |
| 近地点辐角 | 14.740° |
| 升交点赤经 | 346.645° |
| 平近点角 | 345.423° |
| 近地点: | 528.491km |
| 远地点: | 547.675km |
| 周期: | 95.403分钟 |
| 每日圈数: | 15.093836 |